Regional Weather Roundup
Issued by NWS

Home | Current Version | Previous Version | Graphics & Text | Print | Product List | Glossary On
Versions: 1 2 3 4 5 6 7 8 9 10 11 12 13 14 15 16 17 18 19 20 21 22 23 24 25 26 27
000
ASUS45 KCYS 220410
RWRWY

WYOMING REGIONAL WEATHER ROUNDUP
NATIONAL WEATHER SERVICE CHEYENNE WY
1000 PM MDT SAT OCT 21 2017

NOTE:  "FAIR" INDICATES FEW OR NO CLOUDS BELOW 12,000 FEET
WITH NO SIGNIFICANT WEATHER AND/OR OBSTRUCTIONS TO VISIBILITY.

WYZ001-220500-
YELLOWSTONE NATIONAL PARK

CITY           SKY/WX    TMP DP  RH WIND       PRES   REMARKS
LK YELLOWSTONE   N/A     26  22  84 VRB3      30.18S
W YELLOWSTONE  NOT AVBL

$$
WYZ002>013-054>058-071-098>099-220500-
NORTHERN WYOMING

CITY           SKY/WX    TMP DP  RH WIND       PRES   REMARKS
JACKSON        CLOUDY    32  24  72 S12       30.23R WCI  23
CODY           FAIR      42  19  39 W12G24    30.03S
GREYBULL       FAIR      40  17  39 CALM      30.02R
WORLAND        FAIR      35  18  49 SE9       30.03R WCI  28
SHERIDAN       FAIR      35  16  45 CALM      29.95F
BUFFALO        FAIR      35   9  33 SW5       29.99S WCI  31
GILLETTE       FAIR      29  17  61 SW3       29.98R
HULETT         FAIR      36  18  48 S7        29.99S WCI  30
NEWCASTLE      FAIR      32  18  55 N5        30.02R WCI  27

$$
WYZ014>020-022>026-101>103-220500-
CENTRAL WYOMING

CITY           SKY/WX    TMP DP  RH WIND       PRES   REMARKS
BIG PINEY      MOCLDY    24  14  65 E3        30.25R
PINEDALE       CLOUDY    27  18  69 CALM      30.26R
DUBOIS         FAIR      30  18  59 NW18G32   30.11S WCI  18
LANDER         FAIR      34  16  47 SE6       30.07F WCI  29
RIVERTON       FAIR      38  16  40 NW17G23   30.07S WCI  28
CASPER         FAIR      37  12  35 SW16      30.07S WCI  28
DOUGLAS        FAIR      36  12  37 CALM      30.06R

$$
WYZ021-027>030-104>119-220500-
SOUTHERN WYOMING

CITY           SKY/WX    TMP DP  RH WIND       PRES   REMARKS
EVANSTON       FAIR      31  15  52 SW13      30.28S WCI  21
FORT BRIDGER   FAIR      33  15  46 W10       30.30S WCI  25
ROCK SPRINGS   FAIR      34  11  38 SW16      30.26S WCI  24
DIXON          CLOUDY    31  24  75 CALM      30.30S
RAWLINS        FAIR      36  13  38 W30G36    30.19R WCI  23
SARATOGA       FAIR      30  19  64 SE6       30.24R WCI  24
LARAMIE        FAIR      32  15  49 SW21      30.14R WCI  20
CHEYENNE       FAIR      40  16  37 W25G36    30.09F WCI  29
TORRINGTON     FAIR      39  15  37 W6        30.07R WCI  35
PINE BLUFFS    FAIR      28  18  64 MISG      30.13S

$$




USA.gov is the U.S. government's official web portal to all federal, state and local government web resources and services.